Find OneWeb SL0687

NORAD ID: 61595 Int'l Des: 2024-188 Owner: ONEWEBE Country: UK Constellation: oneweb operational
LEOCIRCULARPOLARONEWEB_TYPE

現在のビュー

3D地球を読み込み中...

About OneWeb SL0687

OneWeb SL0687 (NORAD 61595) is a oneweb constellation satellite launched Oct 20, 2024 by ONEWEBE of UK. It operates in LEO, CIRCULAR, POLAR, ONEWEB_TYPE orbit with a mass of 148.00 kg.

OneWeb SL0687について

説明を読み込み中...

次回通過

Passes for default location (London). Set your location on the main map for personalized predictions.

高度履歴

Loading altitude history...

軌道要素

1 61595U 24188B 26169.52169776 -.00000004 00000-0 -44699-4 0 9998
2 61595 87.9126 5.6110 0002356 86.3328 273.8073 13.17648066 86073
Epoch: Jun 18, 2026 • Age: 6 hours

現在のステータス

高度 1196.7 km
速度 7.26 km/s
衛星直下点 0.07°N, 4.93°W
打ち上げ日 Oct 20, 2024
運用期間 1.6 years
タイプ internet

技術仕様

分類 Payload
質量 148.00 kg
乾燥質量 140.00 kg
総質量 148.00 kg
長さ 1.30 m
直径 1.00 m
スパン 5.00 m
形状 Trapezoid+2 pan
製造者 ONEWUS
バスタイプ ARROW
フェーズステータス In Orbit
所有者/国 ONEWEBE/UK

Most Searched